Tiempo cada hora Abadiânia

Hoy, 27 Octubre, Martes

Tiempo Temperatura Precipitaciones Viento Presión Humedad
00:00 +22°C° 1.4 mm 1 mps 674 mmHg 89%
01:00 +22°C° 0.2 mm 1 mps 673 mmHg 88%
02:00 +22°C° 0.2 mm 1 mps 673 mmHg 88%
03:00 +22°C° 0 mm 1 mps 672 mmHg 88%
04:00 +22°C° 0 mm 1 mps 672 mmHg 88%
05:00 +21°C° 0 mm 1 mps 672 mmHg 88%
06:00 +21°C° 0 mm 1 mps 672 mmHg 88%
07:00 +23°C° 0 mm 1 mps 673 mmHg 82%
08:00 +25°C° 0 mm 1 mps 673 mmHg 75%
09:00 +27°C° 0 mm 1 mps 674 mmHg 69%
10:00 +28°C° 0.1 mm 2 mps 674 mmHg 65%
11:00 +29°C° 0.1 mm 2 mps 674 mmHg 61%
12:00 +30°C° 0.1 mm 3 mps 674 mmHg 57%
13:00 +29°C° 1 mm 3 mps 673 mmHg 60%
14:00 +29°C° 1 mm 3 mps 673 mmHg 63%
15:00 +28°C° 1 mm 3 mps 672 mmHg 66%
16:00 +27°C° 1 mm 2 mps 671 mmHg 72%
17:00 +26°C° 1 mm 2 mps 671 mmHg 77%
18:00 +25°C° 1 mm 1 mps 671 mmHg 83%
19:00 +24°C° 0.2 mm 1 mps 671 mmHg 84%
20:00 +23°C° 0.2 mm 1 mps 672 mmHg 85%
21:00 +21°C° 0.2 mm 0 mps 673 mmHg 86%
22:00 +20°C° 0 mm 0 mps 672 mmHg 85%
23:00 +20°C° 0 mm 0 mps 672 mmHg 85%

Mañana, 28 Octubre, Miércoles

Tiempo Temperatura Precipitaciones Viento Presión Humedad
00:00 +20°C° 0 mm 0 mps 672 mmHg 85%
01:00 +20°C° 0.1 mm 0 mps 672 mmHg 86%
02:00 +20°C° 0.1 mm 0 mps 672 mmHg 86%
03:00 +20°C° 0.1 mm 0 mps 671 mmHg 87%
04:00 +20°C° 0.5 mm 0 mps 672 mmHg 87%
05:00 +20°C° 0.5 mm 0 mps 672 mmHg 87%
06:00 +20°C° 0.5 mm 0 mps 673 mmHg 87%
07:00 +23°C° 0.2 mm 1 mps 673 mmHg 82%
08:00 +25°C° 0.2 mm 1 mps 674 mmHg 76%
09:00 +27°C° 0.2 mm 2 mps 675 mmHg 71%
10:00 +28°C° 0.9 mm 2 mps 674 mmHg 69%
11:00 +28°C° 0.9 mm 3 mps 674 mmHg 66%
12:00 +29°C° 0.9 mm 3 mps 674 mmHg 64%
13:00 +29°C° 1 mm 3 mps 673 mmHg 67%
14:00 +28°C° 1 mm 3 mps 673 mmHg 70%
15:00 +27°C° 1 mm 2 mps 672 mmHg 73%
16:00 +26°C° 0.4 mm 2 mps 672 mmHg 77%
17:00 +25°C° 0.4 mm 2 mps 671 mmHg 80%
18:00 +24°C° 0.4 mm 1 mps 671 mmHg 83%
19:00 +23°C° 0 mm 1 mps 672 mmHg 83%
20:00 +23°C° 0 mm 1 mps 672 mmHg 82%
21:00 +20°C° 0 mm 0 mps 673 mmHg 82%
22:00 +20°C° 0.2 mm 0 mps 673 mmHg 83%
23:00 +20°C° 0.2 mm 0 mps 673 mmHg 83%

Pasado mañana, 29 Octubre, Jueves

Tiempo Temperatura Precipitaciones Viento Presión Humedad
00:00 +22°C° 0.2 mm 1 mps 674 mmHg 84%
01:00 +21°C° 0.8 mm 2 mps 673 mmHg 87%
02:00 +20°C° 0.8 mm 3 mps 673 mmHg 91%
03:00 +20°C° 0.8 mm 4 mps 673 mmHg 94%
04:00 +20°C° 0.2 mm 4 mps 673 mmHg 93%
05:00 +19°C° 0.2 mm 3 mps 674 mmHg 93%
06:00 +19°C° 0.2 mm 3 mps 674 mmHg 92%
07:00 +20°C° 0 mm 3 mps 674 mmHg 90%
08:00 +21°C° 0 mm 3 mps 675 mmHg 88%
09:00 +21°C° 0 mm 2 mps 675 mmHg 86%
10:00 +23°C° 0.1 mm 2 mps 675 mmHg 84%
11:00 +23°C° 0.1 mm 2 mps 674 mmHg 83%
12:00 +23°C° 0.1 mm 2 mps 674 mmHg 82%
13:00 +25°C° 0 mm 2 mps 674 mmHg 76%
14:00 +26°C° 0 mm 1 mps 673 mmHg 69%
15:00 +27°C° 0 mm 1 mps 673 mmHg 63%
16:00 +26°C° 0 mm 1 mps 673 mmHg 67%
17:00 +26°C° 0 mm 1 mps 672 mmHg 70%
18:00 +25°C° 0 mm 1 mps 672 mmHg 74%
19:00 +24°C° 0 mm 1 mps 672 mmHg 75%
20:00 +21°C° 0 mm 0 mps 673 mmHg 76%
21:00 +21°C° 0 mm 0 mps 673 mmHg 78%
22:00 +20°C° 0.2 mm 0 mps 673 mmHg 79%
23:00 +20°C° 0.2 mm 0 mps 673 mmHg 81%

30 Octubre, Viernes

Tiempo Temperatura Precipitaciones Viento Presión Humedad
00:00 +20°C° 0.2 mm 0 mps 673 mmHg 82%
01:00 +20°C° 0.7 mm 0 mps 673 mmHg 84%
02:00 +20°C° 0.7 mm 0 mps 673 mmHg 87%
03:00 +20°C° 0.7 mm 0 mps 673 mmHg 89%
04:00 +21°C° 0.6 mm 1 mps 673 mmHg 91%
05:00 +21°C° 0.6 mm 1 mps 673 mmHg 92%
06:00 +20°C° 0.6 mm 2 mps 674 mmHg 94%
07:00 +20°C° 0.4 mm 2 mps 674 mmHg 93%
08:00 +21°C° 0.4 mm 2 mps 675 mmHg 92%
09:00 +21°C° 0.4 mm 2 mps 675 mmHg 90%
10:00 +23°C° 0.1 mm 2 mps 675 mmHg 86%
11:00 +24°C° 0.1 mm 2 mps 675 mmHg 82%
12:00 +25°C° 0.1 mm 2 mps 675 mmHg 78%
13:00 +25°C° 0.1 mm 2 mps 674 mmHg 75%
14:00 +26°C° 0.1 mm 2 mps 674 mmHg 72%
15:00 +27°C° 0.1 mm 2 mps 674 mmHg 69%
16:00 +26°C° 0.5 mm 2 mps 673 mmHg 74%
17:00 +25°C° 0.5 mm 1 mps 673 mmHg 79%
18:00 +24°C° 0.5 mm 1 mps 673 mmHg 84%
19:00 +24°C° 1.2 mm 1 mps 674 mmHg 86%
20:00 +23°C° 1.2 mm 1 mps 674 mmHg 88%
21:00 +23°C° 1.2 mm 1 mps 674 mmHg 90%
22:00 +21°C° 1.2 mm 2 mps 674 mmHg 90%
23:00 +21°C° 1.2 mm 2 mps 674 mmHg 91%

31 Octubre, Sábado

Tiempo Temperatura Precipitaciones Viento Presión Humedad
00:00 +21°C° 1.2 mm 2 mps 674 mmHg 92%
01:00 +21°C° 1.3 mm 2 mps 674 mmHg 93%
02:00 +21°C° 1.3 mm 2 mps 674 mmHg 94%
03:00 +20°C° 1.3 mm 2 mps 673 mmHg 95%
04:00 +20°C° 1.3 mm 2 mps 674 mmHg 95%
05:00 +20°C° 1.3 mm 2 mps 674 mmHg 96%
06:00 +20°C° 1.3 mm 2 mps 674 mmHg 97%
07:00 +20°C° 0.7 mm 2 mps 675 mmHg 96%
08:00 +20°C° 0.7 mm 2 mps 675 mmHg 95%
09:00 +21°C° 0.7 mm 2 mps 676 mmHg 95%
10:00 +21°C° 0.3 mm 2 mps 675 mmHg 93%
11:00 +21°C° 0.3 mm 2 mps 675 mmHg 92%
12:00 +23°C° 0.3 mm 2 mps 675 mmHg 91%
13:00 +21°C° 0.9 mm 2 mps 675 mmHg 92%
14:00 +21°C° 0.9 mm 2 mps 674 mmHg 93%
15:00 +21°C° 0.9 mm 2 mps 674 mmHg 94%
16:00 +21°C° 1.3 mm 2 mps 674 mmHg 95%
17:00 +20°C° 1.3 mm 2 mps 674 mmHg 96%
18:00 +20°C° 1.3 mm 2 mps 674 mmHg 97%
19:00 +21°C° 0.4 mm 1 mps 674 mmHg 97%
20:00 +21°C° 0.4 mm 1 mps 674 mmHg 97%
21:00 +21°C° 0.4 mm 1 mps 674 mmHg 97%
22:00 +20°C° 0.1 mm 1 mps 674 mmHg 96%
23:00 +20°C° 0.1 mm 1 mps 674 mmHg 96%

1 Noviembre, Domingo

Tiempo Temperatura Precipitaciones Viento Presión Humedad
00:00 +18°C° 0.1 mm 0 mps 674 mmHg 96%
01:00 +18°C° 0 mm 0 mps 674 mmHg 96%
02:00 +18°C° 0 mm 0 mps 673 mmHg 96%
03:00 +18°C° 0 mm 0 mps 673 mmHg 96%
04:00 +18°C° 0.1 mm 0 mps 673 mmHg 96%
05:00 +18°C° 0.1 mm 0 mps 673 mmHg 96%
06:00 +18°C° 0.1 mm 0 mps 674 mmHg 95%
07:00 +19°C° 0.2 mm 0 mps 674 mmHg 94%
08:00 +20°C° 0.2 mm 0 mps 675 mmHg 92%
09:00 +22°C° 0.2 mm 1 mps 675 mmHg 90%
10:00 +22°C° 0.2 mm 1 mps 675 mmHg 90%
11:00 +22°C° 0.2 mm 1 mps 674 mmHg 91%
12:00 +21°C° 0.2 mm 2 mps 674 mmHg 91%
13:00 +21°C° 0.2 mm 2 mps 674 mmHg 91%
14:00 +21°C° 0.2 mm 2 mps 673 mmHg 91%
15:00 +21°C° 0.2 mm 2 mps 672 mmHg 91%
16:00 +21°C° 0 mm 2 mps 672 mmHg 91%
17:00 +22°C° 0 mm 1 mps 672 mmHg 91%
18:00 +22°C° 0 mm 1 mps 672 mmHg 91%
19:00 +21°C° 0 mm 1 mps 672 mmHg 93%
20:00 +20°C° 0 mm 1 mps 673 mmHg 94%
21:00 +20°C° 0 mm 1 mps 673 mmHg 96%
22:00 +19°C° 0 mm 1 mps 673 mmHg 96%
23:00 +19°C° 0 mm 1 mps 673 mmHg 95%
Mostrar más

Necesitamos Su Consentimiento

Meteoprog y nuestros Proveedores de Servicios pueden almacenar y acceder a sus datos personales como cookies, identificadores de dispositivo u otras tecnologías similares de su dispositivo y procesar dichos datos para personalizar contenido y anuncios, además de ofrecer funciones de redes sociales y analizar el tráfico.

  • Almacenar y/o acceder a información en su dispositivo

    Se puede almacenar o acceder a cookies, identificadores de dispositivo u otra información de su dispositivo para los fines anteriormente indicados.

  • Anuncios y contenido personalizados, medición de anuncios y contenido, percepciones del público, y desarrollo de productos

    Los anuncios y el contenido pueden personalizarse en base a su perfil. Se pueden añadir más datos para personalizar mejor los anuncios y contenidos. Se puede medir el rendimiento de los anuncios y contenidos. Se puede obtener la percepción sobre el público que ha visto los anuncios y contenidos. Dichos datos pueden usarse para desarrollar o mejorar la experiencia del usuario, sistemas y software.

Al hacer clic en ‘Estoy De Acuerdo’ usted permitirá el uso de las cookies, identificadores de dispositivo, balizas web u otras tecnologías similares indicadas. Su configuración puede cambiarse desde el navegador de su dispositivo.

Para ciertos fines, los intereses legítimos pueden ser considerados por encima del consentimiento. Puede leer más sobre ello en nuestra Política de Privacidad y Cookies.